[[{"header":{"parameterUnit":"m.s-1","parameterCategory":1,"la1":30.2992,"la2":30.254,"lo1":-89.0895,"lo2":-89.0443,"dy":0.0025,"dx":0.0025,"nx":19,"ny":19,"refTime":"2026-05-07T21:00:00:Z","depth":0,"parameterNumber":2,"parameterNumberName":"U-component_of_WINDS"},"data":[0,0,0,-1.6742,-1.6742,-1.6774,-1.6775,-1.68,-1.68,0,0,0,0,0,0,0,0,0,0,0,-1.6724,-1.6724,-1.6742,-1.6742,-1.6774,-1.6775,-1.68,-1.68,0,0,0,0,0,0,0,0,0,0,0,-1.6724,-1.6724,-1.6724,-1.6742,-1.6774,-1.6775,-1.68,-1.6781,0,0,0,0,0,0,0,0,0,0,-1.6753,-1.6728,-1.6724,-1.6724,-1.6743,-1.6774,-1.6775,-1.678,-1.6782,-1.678,0,-1.6776,0,-1.6788,-1.6801,-1.6801,0,0,0,-1.6748,-1.6727,-1.6743,-1.6724,-1.6743,-1.6774,-1.6762,-1.6782,-1.6784,-1.6782,-1.6776,-1.6778,-1.6789,-1.6801,-1.6801,-1.6768,-1.6767,0,0,-1.6746,-1.6725,-1.6742,-1.6744,-1.6739,-1.676,-1.6762,-1.6783,-1.6775,-1.6776,-1.6778,-1.6789,-1.6801,-1.6801,-1.6768,-1.6768,0,0,0,-1.6737,-1.6723,-1.674,-1.6743,-1.675,-1.6761,-1.6764,-1.6774,-1.6781,-1.6779,-1.679,-1.6801,-1.6802,-1.6769,-1.6768,-1.6725,0,0,0,-1.6737,-1.6718,-1.6739,-1.6726,-1.6749,-1.6762,-1.6754,-1.678,-1.6783,-1.6789,-1.6801,-1.6802,-1.6769,-1.6768,-1.6727,-1.6707,0,0,0,-1.6725,-1.6717,-1.6719,-1.6725,-1.6738,-1.6763,-1.6771,-1.6781,-1.6789,-1.6801,-1.6802,-1.6769,-1.6768,-1.6729,-1.6711,-1.6691,0,0,0,-1.6706,-1.668,-1.6718,-1.6694,-1.6737,-1.6737,-1.6771,-1.6772,-1.6777,-1.6801,-1.6769,-1.6768,-1.673,-1.6713,-1.6693,-1.6669,-1.6658,0,0,-1.6662,-1.6674,-1.6662,-1.6697,-1.6684,-1.6734,-1.6715,-1.6739,-1.676,-1.6764,-1.6763,-1.6727,-1.6711,-1.6691,-1.6606,-1.6596,0,0,0,-1.6641,-1.6631,-1.6633,-1.6637,-1.6657,-1.6671,-1.6701,-1.6711,-1.6715,-1.6758,-1.6716,-1.6707,-1.6697,-1.6686,-1.6678,-1.667,-1.6763,-1.6763,-1.6763,-1.6546,-1.6575,-1.6556,-1.6588,-1.6592,-1.6624,-1.663,-1.6648,-1.6675,-1.6665,-1.6665,-1.6609,-1.6596,-1.659,-1.6581,-1.6657,-1.6657,-1.6656,-1.6656,-1.6482,-1.6472,-1.6511,-1.6506,-1.6536,-1.6532,-1.6562,-1.6582,-1.6582,-1.6612,-1.6604,-1.6631,-1.658,-1.6573,-1.6653,-1.6654,-1.6654,-1.6655,-1.6655,-1.6421,-1.6421,-1.6434,-1.6444,-1.6449,-1.6483,-1.6481,-1.6509,-1.6535,-1.6528,-1.653,-1.6531,-1.6533,-1.6528,-1.6527,-1.6527,-1.6527,-1.6527,-1.6527,-1.6351,-1.6368,-1.6363,-1.6382,-1.6389,-1.6401,-1.6434,-1.6442,-1.6456,-1.6477,-1.6477,-1.6503,-1.657,-1.6585,-1.6524,-1.6524,-1.6525,-1.6525,-1.6525,-1.6271,-1.6294,-1.6287,-1.6294,-1.6319,-1.632,-1.6358,-1.637,-1.638,-1.6378,-1.6408,-1.6453,-1.6467,-1.6474,-1.6486,-1.6403,-1.6403,-1.6403,-1.6403,-1.6217,-1.6229,-1.6228,-1.6237,-1.6249,-1.6282,-1.6272,-1.6297,-1.6327,-1.6335,-1.6352,-1.6371,-1.6377,-1.6388,-1.6396,-1.6408,-1.6306,-1.6306,-1.6306,-1.6169,-1.6183,-1.6169,-1.62,-1.6222,-1.6239,-1.623,-1.6238,-1.6277,-1.6303,-1.6341,-1.6345,-1.6377,-1.6387,-1.641,-1.6422,-1.6444,0,0]},{"header":{"parameterUnit":"m.s-1","parameterCategory":1,"la1":30.2992,"la2":30.254,"lo1":-89.0895,"lo2":-89.0443,"dy":0.0025,"dx":0.0025,"nx":19,"ny":19,"refTime":"2026-05-07T21:00:00:Z","depth":0,"parameterNumber":3,"parameterNumberName":"V-component_of_WINDS"},"data":[0,0,0,-2.3982,-2.3983,-2.407,-2.407,-2.4148,-2.4148,0,0,0,0,0,0,0,0,0,0,0,-2.3939,-2.3939,-2.3982,-2.3983,-2.407,-2.407,-2.4148,-2.4148,0,0,0,0,0,0,0,0,0,0,0,-2.3939,-2.3939,-2.3939,-2.3984,-2.407,-2.407,-2.4147,-2.4093,0,0,0,0,0,0,0,0,0,0,-2.4015,-2.3959,-2.3939,-2.3939,-2.3984,-2.407,-2.407,-2.4091,-2.4097,-2.4095,0,-2.4092,0,-2.4121,-2.4151,-2.4152,0,0,0,-2.3995,-2.3954,-2.3994,-2.3939,-2.3985,-2.4069,-2.4034,-2.4095,-2.4101,-2.4102,-2.4093,-2.4097,-2.4122,-2.4152,-2.4152,-2.4109,-2.4108,0,0,-2.3991,-2.3944,-2.3989,-2.3997,-2.3985,-2.4031,-2.4037,-2.4099,-2.4085,-2.4094,-2.4099,-2.4124,-2.4152,-2.4152,-2.411,-2.4109,0,0,0,-2.3969,-2.394,-2.3979,-2.3993,-2.4011,-2.4034,-2.404,-2.4082,-2.4099,-2.41,-2.4125,-2.4152,-2.4153,-2.4111,-2.4109,-2.4025,0,0,0,-2.3967,-2.3928,-2.3976,-2.3948,-2.4009,-2.4048,-2.4021,-2.4094,-2.4103,-2.4124,-2.4152,-2.4153,-2.4112,-2.411,-2.4029,-2.3991,0,0,0,-2.3939,-2.3925,-2.3932,-2.3946,-2.3982,-2.4048,-2.4069,-2.4097,-2.4117,-2.4152,-2.4154,-2.4112,-2.411,-2.4033,-2.3997,-2.3964,0,0,0,-2.3895,-2.3855,-2.393,-2.3894,-2.3981,-2.3998,-2.4069,-2.4083,-2.4103,-2.4153,-2.4111,-2.4109,-2.4034,-2.4001,-2.3968,-2.3924,-2.3904,0,0,-2.3818,-2.3844,-2.3827,-2.3896,-2.3888,-2.3988,-2.3967,-2.4028,-2.4073,-2.4093,-2.4093,-2.4028,-2.3998,-2.3965,-2.3809,-2.3791,0,0,0,-2.3786,-2.3773,-2.3781,-2.3799,-2.3847,-2.3884,-2.3954,-2.3977,-2.3997,-2.4075,-2.401,-2.3994,-2.3976,-2.3957,-2.3943,-2.3929,-2.41,-2.41,-2.4101,-2.3606,-2.3669,-2.3644,-2.3716,-2.3733,-2.3807,-2.3825,-2.3868,-2.3924,-2.3908,-2.3912,-2.3811,-2.3787,-2.3777,-2.3761,-2.3899,-2.3898,-2.3898,-2.3898,-2.3495,-2.3484,-2.3564,-2.3567,-2.3633,-2.3635,-2.3705,-2.3745,-2.3755,-2.3812,-2.38,-2.3852,-2.3756,-2.3746,-2.3892,-2.3893,-2.3894,-2.3895,-2.3895,-2.338,-2.3385,-2.3417,-2.345,-2.3468,-2.3544,-2.355,-2.361,-2.3666,-2.3654,-2.3664,-2.3665,-2.367,-2.3656,-2.3655,-2.3655,-2.3655,-2.3654,-2.3654,-2.3246,-2.3285,-2.3284,-2.3333,-2.3353,-2.3386,-2.3462,-2.3482,-2.3518,-2.3561,-2.3561,-2.3616,-2.3738,-2.3764,-2.3649,-2.365,-2.365,-2.3651,-2.3651,-2.3101,-2.3145,-2.3143,-2.3163,-2.3226,-2.3238,-2.3318,-2.3353,-2.3378,-2.3379,-2.3439,-2.352,-2.3549,-2.3561,-2.3583,-2.3429,-2.3429,-2.3429,-2.3429,-2.3,-2.3024,-2.3036,-2.3064,-2.3098,-2.317,-2.3162,-2.3221,-2.3287,-2.3306,-2.3339,-2.3374,-2.3384,-2.3407,-2.3423,-2.3444,-2.3257,-2.3257,-2.3257,-2.2913,-2.2943,-2.2926,-2.2996,-2.305,-2.3093,-2.3088,-2.3113,-2.3198,-2.3251,-2.3321,-2.3328,-2.3387,-2.3404,-2.3452,-2.3475,-2.3515,0,0]}]]